Track NAVSTAR 60 (USA 196) now! NAVSTAR 60 (USA 196) is classified as:
1 32260U 07047A 23160.36927323 .00000054 00000-0 00000-0 0 9997 2 32260 53.4337 125.7464 0147530 68.5617 292.9758 2.00556075114673